Regional Weather Roundup
Issued by NWS

Home | Current Version | Previous Version | Text Only | Print | Product List | Glossary On
Versions: 1 2 3 4 5 6 7 8 9 10 11 12 13 14 15 16 17 18 19 20 21 22 23 24 25 26 27 28 29 30 31 32 33 34 35 36 37 38 39 40 41 42 43 44 45 46 47 48 49 50
411
ASUS43 KDTX 292010
RWRMI
MICHIGAN HOURLY REGIONAL WEATHER ROUNDUP
NATIONAL WEATHER SERVICE DETROIT/PONTIAC MI
400 PM EDT THU SEP 29 2016

NOTE: "FAIR" INDICATES FEW OR NO CLOUDS BELOW 12,000 FEET WITH NO
SIGNIFICANT WEATHER AND/OR OBSTRUCTION TO VISIBILITY.

MIZ047>049-052>055-059>063-066>070-074>076-081>083-292100-
SOUTHEAST LOWER MICHIGAN

CITY           SKY/WX    TMP DP  RH WIND       PRES   REMARKS
ADRIAN         CLOUDY    63  62  97 NE12      30.16F
ALMA           CLOUDY    61  58  90 NE13G18   30.26S
ANN ARBOR      LGT RAIN  62  61  96 N8        30.16F FOG
BAD AXE        CLOUDY    61  55  80 NE10G18   30.27F
CARO           DRIZZLE   60  57  87 NE7       30.25S
DETROIT CITY   LGT RAIN  62  61  96 NE12      30.18R FOG
DETROIT        LGT RAIN  63  61  93 NE12      30.17S FOG
FLINT          CLOUDY    62  58  86 NE13      30.22S
GROSSE ILE     RAIN      62  60  90 NE16G26   30.15S
HILLSDALE      CLOUDY    63  57  82 NE10G16   30.15F
HOWELL         CLOUDY    61  60  96 NE7       30.19F

CITY           SKY/WX    TMP DP  RH WIND       PRES   REMARKS
JACKSON        CLOUDY    61  60  97 NE9       30.18R
LAMBERTVILLE   CLOUDY    64  59  85 NE7       30.14F
LANSING        LGT RAIN  60  57  89 NE15G26   30.22S FOG
LAPEER         CLOUDY    62  58  86 NE10      30.22F
MASON          CLOUDY    60  58  93 NE9G18    30.20R
MONROE         RAIN      62  61  98 NE8       30.13F
MT. CLEMENS    LGT RAIN  64  59  82 NE17      30.17R
PONTIAC        CLOUDY    63  58  83 N12       30.18F
PORT HURON     LGT RAIN  63  57  82 N8        30.21S
TRI CITIES     CLOUDY    61  56  83 NE17G25   30.28S
MIDLAND        CLOUDY    61  55  78 NE10G20   30.27S
TROY           RAIN      65  60  83 NE7       30.20R
SAGINAW HB     CLOUDY    61  55  82 NE10G20   30.25F
$$
MIZ043>046-050>051-056>058-064>065-071>073-077>080-292100-
SOUTHWEST LOWER MICHIGAN

CITY           SKY/WX    TMP DP  RH WIND       PRES   REMARKS
BATTLE CREEK   CLOUDY    62  59  90 NE14G20   30.19R
BENTON HARBOR  MOSUNNY   68  57  68 NE13G20   30.16F
BIG RAPIDS     CLOUDY    66  55  67 E8        30.26F
COLDWATER      CLOUDY    66  58  74 NE15      30.16R
FREMONT        CLOUDY    65  54  67 NE9G16    30.24F
HOLLAND        CLOUDY    62  57  83 NE10G21   30.22S
GRAND RAPIDS   LGT RAIN  61  56  83 NE14      30.23R
IONIA          CLOUDY    59  55  88 NE16G23   30.23R
KALAMAZOO      PTSUNNY   64  57  78 NE9G17    30.19R
LUDINGTON      PTSUNNY   71  54  54 NE14      30.26F
MARSHALL       CLOUDY    62  60  94 NE6       30.18R
MOUNT PLEASANT CLOUDY    61  54  77 NE10G22   30.28S
MUSKEGON       LGT RAIN  62  58  86 E12       30.24S
SOUTH HAVEN    CLOUDY    64  60  85 NE14      30.19S
$$
MIZ016>042-292100-
NORTHERN LOWER MICHIGAN

CITY           SKY/WX    TMP DP  RH WIND       PRES   REMARKS
ALPENA         CLOUDY    62  53  72 NE15      30.38S
BEAVER ISLAND  SUNNY     66  55  67 NE13      30.38F
BELLAIRE       PTSUNNY   70  51  50 N13G21    30.33S
CADILLAC       MOSUNNY   68  50  52 E15G21    30.29S
CHARLEVOIX     SUNNY     66  53  63 NE15G23   30.38F
FRANKFORT      SUNNY     70  53  55 NE6G17    30.30F
GAYLORD        PTSUNNY   64  51  62 NE16G24   30.35S
GRAYLING       PTSUNNY   65  51  61 E16G23    30.35R
HARBOR SPRINGS MOSUNNY   66  54  65 E14G22    30.36F
HOUGHTON LAKE  MOSUNNY   64  50  60 E16G28    30.33R
MANISTEE       MOSUNNY   71  53  52 NE16G22   30.27F
OSCODA         CLOUDY    60  54  79 NE13      30.33R
PELLSTON       SUNNY     67  52  58 E12       30.38F
ROGERS CITY    CLOUDY    63  56  77 NE6       30.39F
TRAVERSE CITY  MOSUNNY   70  52  52 NE12      30.30S
$$
MIZ007>008-015-292100-
EASTERN UPPER MICHIGAN

CITY           SKY/WX    TMP DP  RH WIND       PRES   REMARKS
KINROSS        SUNNY     71  50  47 E12       30.40F
MACKINAC ISLAN SUNNY     65  54  67 E8G17     30.38F
NEWBERRY       SUNNY     70  50  49 NE9       30.40S
S. S. MARIE    SUNNY     73  50  44 VRB5      30.39F
MUNISING         N/A     64  58  80 N15       30.43S
$$
MIZ004>006-011>014-085-292100-
CENTRAL UPPER MICHIGAN

CITY           SKY/WX    TMP DP  RH WIND       PRES   REMARKS
MANISTIQUE     SUNNY     69  56  64 SE5       30.38F
ESCANABA       SUNNY     72  56  57 NE10      30.37F
MENOMINEE      SUNNY     67  57  70 E15       30.37F
SAWYER-GWINN   MOSUNNY   61  54  77 NE17G24   30.45S
$$
MIZ001>003-009>011-084-292100-
WESTERN UPPER MICHIGAN

CITY           SKY/WX    TMP DP  RH WIND       PRES   REMARKS
IRON MOUNTAIN  SUNNY     72  49  44 NE9       30.40S
HOUGHTON       PTSUNNY   64  53  67 VRB3      30.47S
COPPER HARBOR    N/A     56  53  90 NE6       30.49S
IRONWOOD       CLOUDY    61  54  77 N8        30.48S
$$

ABBREVIATIONS USED IN REMARKS
   TC - TEMPERATURE IN CELSIUS
  WCI - WIND CHILL INDEX
   HX - HEAT INDEX
  VSB - VISIBILITY





USA.gov is the U.S. government's official web portal to all federal, state and local government web resources and services.